{"data":{"norad_id":57824,"epoch":"2026-05-25T01:53:12.607296Z","epoch_age_seconds":69010,"freshness":"FRESH","line1":"1 57824U 23138S   26145.07861814 -.00000957  00000+0 -25279-4 0  9997","line2":"2 57824  43.0025 162.5514 0001299 277.6607  82.4097 15.27562325150411","mean_motion":15.27562325,"eccentricity":0.0001299,"inclination_deg":43.0025,"raan_deg":162.5514,"arg_perigee_deg":277.6607,"mean_anomaly_deg":82.4097,"bstar":-2.5279e-5,"rev_number":15041,"period_min":94.267839448057,"perigee_km":482.21074690958,"apogee_km":483.99329680746,"semimajor_km":6861.2390218585,"source":"CELESTRAK","updated_at":"2026-05-25T13:38:18.411685Z"}}